Retour au catalogue

FENGYUN 1C DEB

LostPO
NORAD 38804·DEBRIS·🇨🇳 China

Lancé May 10, 1999 depuis Taiyuan Satellite Launch Center

Loading…

Prochains Passages (prochaines 24 heures)

TLE

PériméSource: Space-Track

Époque: Jul 26, 2022, 06:08 UTC

1 38804U 99025EUU 22207.25558910  .00002265  00000-0  18771-2 0  9997
2 38804  97.5307   3.9120 0393995 142.2254 220.7257 13.58893283656461

Suivez FENGYUN 1C DEB en temps réel avec AllMySat

Download on the App Store